This demonstration page uses our WeatherBlox Daily Observations layout. Learn more.

Left ArrowRight Arrow

Hourly Observations for September 18, 2017

Temp ( °F °C ) Dew Point ( °F °C ) Humidity (%) Winds ( mph kmh ) Pressure ( in mb ) Visibility ( mi km ) Precip ( " mm )
12:41 am 00:41 Cloudy 65 18.3 58 14.4 78 78 SSE 6 9 30.06 1018 10 16.0934 0 0
12:54 am 00:54 Cloudy with Light Rain 64 17.8 58 14.4 81 81 S 7 11 30.06 1018 9 14.48406 0 0.0254
1:54 am 01:54 Cloudy 63 17.2 62 16.7 97 97 SSE 7 11 30.03 1017 10 16.0934 0 0.0254
2:54 am 02:54 Mostly Cloudy 64 17.8 62 16.7 93 93 SSE 6 9 30.03 1017 10 16.0934 0 0
3:54 am 03:54 Cloudy with Light Rain 64 17.8 62 16.7 93 93 SSE 7 11 30 1016 9 14.48406 0 0.0254
4:11 am 04:11 Cloudy with Light Rain 64 17.8 62 16.7 93 93 SSE 9 15 29.97 1015 5 8.0467 0.02 0.508
4:39 am 04:39 Cloudy with Light Rain 64 17.8 63 17.2 96 96 SE 8 13 29.94 1014 7 11.26538 0.05 1.27
4:46 am 04:46 Cloudy with Light Rain 65 18.3 63 17.2 93 93 SSE 8 13 29.94 1014 9 14.48406 0.05 1.27
4:54 am 04:54 Cloudy 65 18.3 63 17.2 93 93 S 14 22 29.97 1015 9 14.48406 0.05 1.27
5:54 am 05:54 Cloudy 65 18.3 63 17.2 93 93 S 12 19 29.96 1015 9 14.48406 0 0
6:19 am 06:19 Cloudy 66 18.9 64 17.8 93 93 S 8 13 29.94 1014 10 16.0934 0 0
6:54 am 06:54 Mostly Cloudy with Light Rain 66 18.9 64 17.8 93 93 S 10 17 29.97 1015 9 14.48406 0 0.0254
7:42 am 07:42 Cloudy with Rain 66 18.9 64 17.8 93 93 SSE 9 15 29.97 1015 3 4.82802 0.12 3.048
7:54 am 07:54 Cloudy with Rain 66 18.9 64 17.8 93 93 SSE 6 9 29.98 1015 3 4.82802 0.17 4.318
8:21 am 08:21 Cloudy with Nearby Thunderstorms 66 18.9 64 17.8 93 93 SSE 13 20 29.97 1015 5 8.0467 0.02 0.508
8:40 am 08:40 Cloudy with Light Rain 66 18.9 64 17.8 93 93 SSE 17 28 29.94 1014 4 6.43736 0.03 0.762
8:54 am 08:54 Mostly Cloudy 66 18.9 65 18.3 96 96 SSE 10 17 29.94 1014 7 11.26538 0.03 0.762
9:26 am 09:26 Mostly Cloudy 66 18.9 64 17.8 93 93 S 7 11 29.94 1014 9 14.48406 0 0
9:54 am 09:54 Cloudy 67 19.4 64 17.8 91 91 S 6 9 29.97 1015 9 14.48406 0 0
10:54 am 10:54 Cloudy 67 19.4 65 18.3 93 93 SSE 10 17 29.97 1015 7 11.26538 0 0.0254
11:28 am 11:28 Cloudy with Light Rain 68 20 66 18.9 93 93 SSE 7 11 29.94 1014 4 6.43736 0 0.0254
11:32 am 11:32 Cloudy with Light Rain 68 20 66 18.9 93 93 SSE 7 11 29.94 1014 4 6.43736 0 0.0254
11:45 am 11:45 Cloudy with Light Rain 68 20 66 18.9 93 93 SSE 9 15 29.94 1014 6 9.65604 0.01 0.254
11:52 am 11:52 Cloudy with Light Rain 68 20 66 19 94 94 SSE 9 15 29.94 1014 6 9.65604 0.01 0.254
11:54 am 11:54 Cloudy with Light Rain 68 20 66 18.9 93 93 SSE 8 13 29.96 1015 5 8.0467 0.01 0.254
12:01 pm 12:01 Cloudy with Light Rain 67 19.4 65 18.3 93 93 SSE 7 11 29.94 1014 7 11.26538 0 0.0254
12:08 pm 12:08 Cloudy with Nearby Thunderstorms 68 20 65 18.3 90 90 SE 7 11 29.94 1014 8 12.87472 0 0.0254
12:14 pm 12:14 Cloudy with Nearby Thunderstorms 67 19.4 65 18.3 93 93 SE 7 11 29.94 1014 6 9.65604 0 0.0254
12:26 pm 12:26 Cloudy with Light Rain 68 20 66 18.9 93 93 SE 7 11 29.94 1014 9 14.48406 0 0.0254
12:45 pm 12:45 Cloudy 68 20 66 18.9 93 93 S 8 13 29.94 1014 9 14.48406 0 0.0254
12:54 pm 12:54 Cloudy 68 20 66 18.9 93 93 S 8 13 29.95 1014 10 16.0934 0 0.0254
1:54 pm 13:54 Cloudy 70 21.1 67 19.4 90 90 SSE 7 11 29.92 1013 10 16.0934 0.01 0.254
2:35 pm 14:35 Cloudy with Mist and Fog 70 21.1 67 19.4 90 90 S 7 11 29.91 1013 6 9.65604 0 0
2:54 pm 14:54 Cloudy with Light Rain 70 21.1 67 19.4 90 90 S 10 17 29.91 1013 4 6.43736 0 0.0254
3:00 pm 15:00 Cloudy with Mist and Fog 70 21.1 68 20 93 93 SSE 8 13 29.91 1013 4 6.43736 0 0.0254
3:41 pm 15:41 Cloudy 73 22.8 68 20 84 84 S 10 17 29.85 1011 10 16.0934 0 0.0254
3:54 pm 15:54 Cloudy 73 22.8 68 20 84 84 S 12 19 29.89 1012 10 16.0934 0 0.0254
4:54 pm 16:54 Mostly Cloudy 74 23.3 67 19.4 79 79 SSW 7 11 29.87 1011 10 16.0934 0 0
5:54 pm 17:54 Sunny 75 23.9 66 18.9 74 74 S 9 15 29.85 1011 10 16.0934 0 0
6:54 pm 18:54 Sunny 74 23.3 66 18.9 76 76 SSE 7 11 29.85 1011 10 16.0934 0 0
7:54 pm 19:54 Clear 72 22.2 66 18.9 82 82 ESE 3 6 29.85 1011 10 16.0934 0 0
8:54 pm 20:54 Clear 68 20 64 17.8 87 87 SE 5 7 29.87 1011 10 16.0934 0 0
9:54 pm 21:54 Clear 68 20 64 17.8 87 87 SE 3 6 29.88 1012 9 14.48406 0 0
10:54 pm 22:54 Clear 66 18.9 63 17.2 90 90 Calm 29.88 1012 9 14.48406 0 0
11:54 pm 23:54 Clear 65 18.3 64 17.8 97 97 Calm 29.87 1012 7 11.26538 0 0

Powered by AerisWeather